CKS226 KMIA-KLAX

Flight info

Callsign CKS226
Flight time 5h 11m
Altitude 34000
Route GLADZ4 BAGGS REMIS Y280 LEV KCEEE TKNIQ MOLLR JCT FST ELP J50 SSO J4 WLVRN ESTWD HLYWD1
Aircraft B77L/H-SDE1E2E3FGHIJ2J3J4J5M1RWXY/LB1D1

Departure

Time 2026-04-25 07:46
Airport Miami International Airport (KMIA)

Arrival

Time 2026-04-25 12:57
Airport Los Angeles International Airport (KLAX)
Time Latitude Longitude Altitude Speed Heading
2026-04-25 07:14 25.79092 -80.29117 19 ft 0 kts 209°
2026-04-25 07:35 25.79112 -80.29105 23 ft 4 kts 209°
2026-04-25 07:35 25.79131 -80.29093 22 ft 4 kts 206°
2026-04-25 07:36 25.79156 -80.29084 19 ft 4 kts 180°
2026-04-25 07:36 25.79181 -80.29090 21 ft 4 kts 144°
2026-04-25 07:36 25.79194 -80.29104 22 ft 1 kts 120°
2026-04-25 07:39 25.79189 -80.29094 19 ft 4 kts 120°
2026-04-25 07:39 25.79166 -80.29051 19 ft 9 kts 119°
2026-04-25 07:39 25.79130 -80.28979 19 ft 11 kts 119°
2026-04-25 07:40 25.79122 -80.28902 19 ft 11 kts 53°
2026-04-25 07:40 25.79197 -80.28886 17 ft 12 kts
2026-04-25 07:40 25.79279 -80.28885 18 ft 12 kts 358°
2026-04-25 07:40 25.79360 -80.28895 19 ft 12 kts 336°
2026-04-25 07:41 25.79408 -80.28967 19 ft 12 kts 300°
2026-04-25 07:41 25.79453 -80.29054 19 ft 15 kts 300°
2026-04-25 07:41 25.79505 -80.29157 19 ft 15 kts 299°
2026-04-25 07:41 25.79558 -80.29260 20 ft 15 kts 300°
2026-04-25 07:42 25.79610 -80.29361 19 ft 15 kts 299°
2026-04-25 07:42 25.79662 -80.29464 19 ft 15 kts 299°
2026-04-25 07:42 25.79715 -80.29567 19 ft 15 kts 299°
2026-04-25 07:42 25.79767 -80.29670 19 ft 15 kts 300°
2026-04-25 07:43 25.79820 -80.29773 19 ft 15 kts 300°
2026-04-25 07:43 25.79873 -80.29875 19 ft 15 kts 300°
2026-04-25 07:43 25.79925 -80.29978 18 ft 15 kts 300°
2026-04-25 07:43 25.79978 -80.30081 18 ft 15 kts 299°
2026-04-25 07:44 25.80039 -80.30130 19 ft 9 kts 352°
2026-04-25 07:44 25.80070 -80.30113 18 ft 4 kts 55°
2026-04-25 07:44 25.80073 -80.30092 18 ft 1 kts 88°
2026-04-25 07:45 25.80082 -80.29875 17 ft 66 kts 87°
2026-04-25 07:45 25.80114 -80.29102 24 ft 132 kts 87°
2026-04-25 07:45 25.80169 -80.27877 44 ft 180 kts 87°
2026-04-25 07:45 25.80232 -80.26494 596 ft 180 kts 87°
2026-04-25 07:46 25.80305 -80.25084 1167 ft 185 kts 87°
2026-04-25 07:46 25.80378 -80.23686 1869 ft 186 kts 88°
2026-04-25 07:46 25.80444 -80.22168 2163 ft 210 kts 88°
2026-04-25 07:46 25.80505 -80.20452 2401 ft 236 kts 88°
2026-04-25 07:47 25.80632 -80.18590 2857 ft 250 kts 76°
2026-04-25 07:47 25.81489 -80.16892 3439 ft 261 kts 43°
2026-04-25 07:47 25.83084 -80.15957 4204 ft 266 kts 11°
2026-04-25 07:47 25.84926 -80.15840 4961 ft 267 kts
2026-04-25 07:48 25.86802 -80.15792 5759 ft 270 kts
2026-04-25 07:48 25.88680 -80.15734 6615 ft 270 kts
2026-04-25 07:48 25.90525 -80.15977 7206 ft 276 kts 344°
2026-04-25 07:48 25.92353 -80.16630 7953 ft 279 kts 340°
2026-04-25 07:49 25.94203 -80.17330 8725 ft 282 kts 341°
2026-04-25 07:49 25.96073 -80.18015 9503 ft 284 kts 340°
2026-04-25 07:49 25.97804 -80.19053 10079 ft 287 kts 315°
2026-04-25 07:49 25.98952 -80.20905 10448 ft 303 kts 291°
2026-04-25 07:50 25.99394 -80.23270 10615 ft 324 kts 277°
2026-04-25 07:50 25.99661 -80.25853 10805 ft 349 kts 277°
2026-04-25 07:50 25.99886 -80.28608 11270 ft 364 kts 272°
2026-04-25 07:50 25.99871 -80.31457 12050 ft 371 kts 269°
2026-04-25 07:51 25.99805 -80.34294 13017 ft 373 kts 270°
2026-04-25 07:51 25.99771 -80.37178 13970 ft 375 kts 271°
2026-04-25 07:51 25.99752 -80.40087 14765 ft 376 kts 269°
2026-04-25 07:51 25.99265 -80.42966 15303 ft 388 kts 251°
2026-04-25 07:52 25.97929 -80.45605 16026 ft 395 kts 236°
2026-04-25 07:52 25.96207 -80.48023 16727 ft 402 kts 234°
2026-04-25 07:52 25.94446 -80.50461 17475 ft 407 kts 234°
2026-04-25 07:52 25.92672 -80.52925 18247 ft 410 kts 235°
2026-04-25 07:53 25.90913 -80.55382 18904 ft 414 kts 235°
2026-04-25 07:53 25.89119 -80.57901 19570 ft 417 kts 235°
2026-04-25 07:53 25.87322 -80.60434 20270 ft 420 kts 235°
2026-04-25 07:53 25.85514 -80.62987 20995 ft 422 kts 235°
2026-04-25 07:54 25.83698 -80.65554 21687 ft 424 kts 236°
2026-04-25 07:54 25.81869 -80.68137 22338 ft 427 kts 236°
2026-04-25 07:54 25.80024 -80.70740 22986 ft 431 kts 236°
2026-04-25 07:54 25.78322 -80.73464 23577 ft 429 kts 246°
2026-04-25 07:55 25.77342 -80.76549 24007 ft 424 kts 258°
2026-04-25 07:55 25.76614 -80.79696 24412 ft 430 kts 257°
2026-04-25 07:55 25.75791 -80.82893 24978 ft 432 kts 256°
2026-04-25 07:55 25.74923 -80.86084 25610 ft 432 kts 256°
2026-04-25 07:56 25.74045 -80.89276 26183 ft 434 kts 256°
2026-04-25 07:56 25.73162 -80.92487 26731 ft 436 kts 257°
2026-04-25 07:56 25.72280 -80.95709 27310 ft 437 kts 257°
2026-04-25 07:56 25.71395 -80.98944 27843 ft 440 kts 257°
2026-04-25 07:57 25.70505 -81.02197 28336 ft 442 kts 257°
2026-04-25 07:57 25.69622 -81.05424 28810 ft 445 kts 257°
2026-04-25 07:57 25.68720 -81.08713 29268 ft 447 kts 258°
2026-04-25 07:57 25.67813 -81.12017 29718 ft 448 kts 258°
2026-04-25 07:58 25.66907 -81.15307 30371 ft 444 kts 258°
2026-04-25 07:58 25.66010 -81.18562 31006 ft 439 kts 258°
2026-04-25 07:58 25.65421 -81.21818 31350 ft 430 kts 271°
2026-04-25 07:58 25.65602 -81.25112 31681 ft 427 kts 281°
2026-04-25 07:59 25.66315 -81.28276 32143 ft 422 kts 291°
2026-04-25 07:59 25.67533 -81.31167 32646 ft 419 kts 296°
2026-04-25 07:59 25.68875 -81.34026 33093 ft 417 kts 296°
2026-04-25 07:59 25.70217 -81.36876 33530 ft 417 kts 296°
2026-04-25 08:00 25.71553 -81.39734 33917 ft 417 kts 296°
2026-04-25 08:00 25.72877 -81.42595 33935 ft 419 kts 296°
2026-04-25 08:00 25.75500 -81.48334 33945 ft 416 kts 296°
2026-04-25 08:01 25.78096 -81.54050 33950 ft 415 kts 295°
2026-04-25 08:01 25.80670 -81.59732 33952 ft 415 kts 295°
2026-04-25 08:02 25.83261 -81.65456 33951 ft 415 kts 295°
2026-04-25 08:02 25.85852 -81.71186 33953 ft 415 kts 295°
2026-04-25 08:03 25.88496 -81.76885 33947 ft 415 kts 301°
2026-04-25 08:03 25.92566 -81.81462 33954 ft 423 kts 319°
2026-04-25 08:04 25.97275 -81.85307 33955 ft 424 kts 318°
2026-04-25 08:04 26.02008 -81.89241 33947 ft 425 kts 318°
2026-04-25 08:05 26.06741 -81.93212 33954 ft 427 kts 318°
2026-04-25 08:05 26.11479 -81.97203 33944 ft 428 kts 318°
2026-04-25 08:06 26.16198 -82.01183 33943 ft 429 kts 318°
2026-04-25 08:06 26.20949 -82.05194 33943 ft 428 kts 318°
2026-04-25 08:07 26.25696 -82.09205 33941 ft 428 kts 318°
2026-04-25 08:07 26.30434 -82.13213 33945 ft 427 kts 318°
2026-04-25 08:08 26.35133 -82.17192 33970 ft 427 kts 318°
2026-04-25 08:08 26.39862 -82.21201 33951 ft 427 kts 318°
2026-04-25 08:09 26.44595 -82.25218 33945 ft 428 kts 318°
2026-04-25 08:09 26.49329 -82.29239 33945 ft 428 kts 318°
2026-04-25 08:10 26.54063 -82.33266 33948 ft 428 kts 318°
2026-04-25 08:10 26.58761 -82.37264 33948 ft 428 kts 318°
2026-04-25 08:11 26.63496 -82.41300 33938 ft 428 kts 318°
2026-04-25 08:11 26.68235 -82.45343 33963 ft 429 kts 318°
2026-04-25 08:12 26.72986 -82.49401 33952 ft 430 kts 318°
2026-04-25 08:12 26.77745 -82.53470 33946 ft 431 kts 318°
2026-04-25 08:13 26.82478 -82.57521 33943 ft 431 kts 318°
2026-04-25 08:14 26.89622 -82.63644 33947 ft 431 kts 318°
2026-04-25 08:14 26.94388 -82.67735 33947 ft 431 kts 318°
2026-04-25 08:15 26.99152 -82.71828 33963 ft 431 kts 319°
2026-04-25 08:15 27.03891 -82.75905 33954 ft 433 kts 319°
2026-04-25 08:16 27.08666 -82.80017 33942 ft 433 kts 319°
2026-04-25 08:16 27.13080 -82.84498 33943 ft 424 kts 304°
2026-04-25 08:16 27.14559 -82.87346 33945 ft 422 kts 291°
2026-04-25 08:17 27.15533 -82.90441 33950 ft 421 kts 289°
2026-04-25 08:17 27.17445 -82.96632 33944 ft 424 kts 289°
2026-04-25 08:18 27.19423 -83.02893 33947 ft 426 kts 290°
2026-04-25 08:18 27.21425 -83.09181 33945 ft 428 kts 290°
2026-04-25 08:19 27.23432 -83.15481 33936 ft 429 kts 290°
2026-04-25 08:19 27.25440 -83.21792 33932 ft 429 kts 290°
2026-04-25 08:20 27.27428 -83.28056 33939 ft 428 kts 290°
2026-04-25 08:20 27.29425 -83.34356 33939 ft 427 kts 290°
2026-04-25 08:21 27.31415 -83.40648 33939 ft 427 kts 290°
2026-04-25 08:21 27.33390 -83.46902 33951 ft 428 kts 290°
2026-04-25 08:22 27.35381 -83.53220 33945 ft 429 kts 290°
2026-04-25 08:22 27.37373 -83.59552 33932 ft 430 kts 290°
2026-04-25 08:23 27.39369 -83.65906 33939 ft 431 kts 290°
2026-04-25 08:23 27.41366 -83.72277 33941 ft 432 kts 290°
2026-04-25 08:24 27.43351 -83.78618 33940 ft 433 kts 290°
2026-04-25 08:24 27.45347 -83.85012 33937 ft 433 kts 290°
2026-04-25 08:25 27.47342 -83.91407 33921 ft 433 kts 290°
2026-04-25 08:25 27.49316 -83.97754 33932 ft 432 kts 290°
2026-04-25 08:26 27.51302 -84.04145 33942 ft 432 kts 290°
2026-04-25 08:26 27.53285 -84.10539 33934 ft 432 kts 290°
2026-04-25 08:27 27.55264 -84.16934 33933 ft 432 kts 290°
2026-04-25 08:27 27.57241 -84.23331 33936 ft 432 kts 290°
2026-04-25 08:28 27.59199 -84.29681 33928 ft 432 kts 290°
2026-04-25 08:28 27.61169 -84.36083 33938 ft 432 kts 290°
2026-04-25 08:29 27.63137 -84.42488 33934 ft 432 kts 290°
2026-04-25 08:29 27.65103 -84.48899 33935 ft 433 kts 290°
2026-04-25 08:30 27.67054 -84.55272 33934 ft 433 kts 290°
2026-04-25 08:30 27.69015 -84.61691 33938 ft 433 kts 290°
2026-04-25 08:31 27.70972 -84.68107 33922 ft 433 kts 290°
2026-04-25 08:31 27.72930 -84.74542 33937 ft 434 kts 290°
2026-04-25 08:32 27.74879 -84.80953 33938 ft 435 kts 290°
2026-04-25 08:32 27.76842 -84.87427 33938 ft 436 kts 290°
2026-04-25 08:33 27.78806 -84.93916 33931 ft 437 kts 290°
2026-04-25 08:33 27.80766 -85.00406 33935 ft 437 kts 290°
2026-04-25 08:34 27.82727 -85.06908 33926 ft 437 kts 290°
2026-04-25 08:34 27.84670 -85.13368 33939 ft 437 kts 290°
2026-04-25 08:35 27.86624 -85.19872 33933 ft 437 kts 290°
2026-04-25 08:35 27.88575 -85.26378 33934 ft 437 kts 290°
2026-04-25 08:36 27.90531 -85.32834 33931 ft 437 kts 290°
2026-04-25 08:36 27.92508 -85.39331 33932 ft 437 kts 290°
2026-04-25 08:37 27.94477 -85.45823 33924 ft 437 kts 290°
2026-04-25 08:37 27.96442 -85.52323 33930 ft 437 kts 290°
2026-04-25 08:38 27.98404 -85.58825 33931 ft 437 kts 290°
2026-04-25 08:38 28.00351 -85.65294 33939 ft 438 kts 290°
2026-04-25 08:39 28.02322 -85.71853 33939 ft 442 kts 290°
2026-04-25 08:39 28.04305 -85.78464 33938 ft 445 kts 290°
2026-04-25 08:40 28.06297 -85.85119 33938 ft 447 kts 290°
2026-04-25 08:40 28.08279 -85.91753 33935 ft 449 kts 290°
2026-04-25 08:41 28.10275 -85.98449 33933 ft 449 kts 290°
2026-04-25 08:41 28.12265 -86.05141 33930 ft 448 kts 290°
2026-04-25 08:42 28.14248 -86.11819 33930 ft 447 kts 290°
2026-04-25 08:42 28.16223 -86.18483 33928 ft 446 kts 290°
2026-04-25 08:43 28.18178 -86.25092 33931 ft 445 kts 290°
2026-04-25 08:43 28.20140 -86.31740 33935 ft 445 kts 290°
2026-04-25 08:44 28.22097 -86.38383 33935 ft 445 kts 290°
2026-04-25 08:44 28.24053 -86.45039 33934 ft 445 kts 290°
2026-04-25 08:45 28.25995 -86.51659 33934 ft 445 kts 290°
2026-04-25 08:45 28.27948 -86.58330 33925 ft 445 kts 290°
2026-04-25 08:46 28.29897 -86.64999 33932 ft 445 kts 290°
2026-04-25 08:46 28.31842 -86.71668 33932 ft 445 kts 290°
2026-04-25 08:47 28.33779 -86.78281 33936 ft 445 kts 290°
2026-04-25 08:47 28.35736 -86.84960 33933 ft 446 kts 290°
2026-04-25 08:48 28.37691 -86.91653 33930 ft 447 kts 290°
2026-04-25 08:48 28.39644 -86.98355 33919 ft 447 kts 289°
2026-04-25 08:49 28.41592 -87.05059 33928 ft 447 kts 289°
2026-04-25 08:49 28.43524 -87.11719 33928 ft 447 kts 289°
2026-04-25 08:50 28.45465 -87.18422 33929 ft 446 kts 289°
2026-04-25 08:50 28.47399 -87.25117 33924 ft 446 kts 289°
2026-04-25 08:51 28.49332 -87.31817 33926 ft 446 kts 289°
2026-04-25 08:51 28.51257 -87.38510 33928 ft 445 kts 289°
2026-04-25 08:52 28.53163 -87.45146 33923 ft 444 kts 289°
2026-04-25 08:52 28.55074 -87.51817 33920 ft 443 kts 289°
2026-04-25 08:53 28.56981 -87.58483 33928 ft 443 kts 289°
2026-04-25 08:53 28.58883 -87.65148 33925 ft 443 kts 289°
2026-04-25 08:54 28.60779 -87.71807 33907 ft 443 kts 289°
2026-04-25 08:54 28.62658 -87.78418 33917 ft 441 kts 289°
2026-04-25 08:55 28.64540 -87.85057 33919 ft 440 kts 289°
2026-04-25 08:55 28.66419 -87.91698 33922 ft 441 kts 289°
2026-04-25 08:56 28.68297 -87.98347 33917 ft 441 kts 289°
2026-04-25 08:56 28.70161 -88.04960 33917 ft 442 kts 289°
2026-04-25 08:57 28.72036 -88.11626 33905 ft 442 kts 289°
2026-04-25 08:57 28.73906 -88.18306 33914 ft 443 kts 289°
2026-04-25 08:58 28.75776 -88.25002 33914 ft 444 kts 289°
2026-04-25 08:58 28.77633 -88.31660 33915 ft 445 kts 289°
2026-04-25 08:59 28.79503 -88.38382 33914 ft 445 kts 289°
2026-04-25 08:59 28.81371 -88.45110 33913 ft 445 kts 289°
2026-04-25 09:00 28.83236 -88.51839 33916 ft 445 kts 288°
2026-04-25 09:00 28.85084 -88.58527 33915 ft 445 kts 288°
2026-04-25 09:01 28.86942 -88.65264 33912 ft 445 kts 288°
2026-04-25 09:01 28.88727 -88.72033 33909 ft 446 kts 285°
2026-04-25 09:02 28.90196 -88.78900 33907 ft 446 kts 284°
2026-04-25 09:02 28.91396 -88.84625 33908 ft 446 kts 284°
2026-04-25 09:03 28.93082 -88.92624 33904 ft 446 kts 284°
2026-04-25 09:03 28.94537 -88.99505 33908 ft 446 kts 284°
2026-04-25 09:04 28.95749 -89.05229 33928 ft 446 kts 284°
2026-04-25 09:04 28.97202 -89.12116 33912 ft 447 kts 283°
2026-04-25 09:05 28.98652 -89.19016 33904 ft 447 kts 283°
2026-04-25 09:05 29.00099 -89.25913 33901 ft 446 kts 283°
2026-04-25 09:06 29.01525 -89.32732 33884 ft 443 kts 283°
2026-04-25 09:06 29.02948 -89.39553 33889 ft 440 kts 283°
2026-04-25 09:07 29.04589 -89.47444 33890 ft 438 kts 283°
2026-04-25 09:07 29.05767 -89.53121 33890 ft 438 kts 283°
2026-04-25 09:08 29.07157 -89.59840 33891 ft 438 kts 283°
2026-04-25 09:08 29.08556 -89.66619 33891 ft 438 kts 283°
2026-04-25 09:09 29.09955 -89.73411 33890 ft 439 kts 283°
2026-04-25 09:09 29.11352 -89.80219 33889 ft 440 kts 283°
2026-04-25 09:10 29.12748 -89.87040 33889 ft 441 kts 283°
2026-04-25 09:10 29.14133 -89.93823 33880 ft 441 kts 283°
2026-04-25 09:11 29.16216 -90.04064 33878 ft 441 kts 283°
2026-04-25 09:11 29.17449 -90.10928 33882 ft 440 kts 278°
2026-04-25 09:12 29.17815 -90.17902 33885 ft 440 kts 273°
2026-04-25 09:12 29.18041 -90.24842 33871 ft 439 kts 273°
2026-04-25 09:13 29.18285 -90.31821 33883 ft 439 kts 274°
2026-04-25 09:13 29.18534 -90.38797 33879 ft 439 kts 274°
2026-04-25 09:14 29.18780 -90.45765 33885 ft 438 kts 274°
2026-04-25 09:14 29.19020 -90.52673 33883 ft 438 kts 274°
2026-04-25 09:15 29.19258 -90.59631 33886 ft 437 kts 274°
2026-04-25 09:15 29.19492 -90.66587 33885 ft 437 kts 274°
2026-04-25 09:16 29.19723 -90.73544 33884 ft 437 kts 273°
2026-04-25 09:16 29.19947 -90.80452 33878 ft 437 kts 274°
2026-04-25 09:17 29.20280 -90.90856 33884 ft 436 kts 274°
2026-04-25 09:18 29.20498 -90.97789 33885 ft 436 kts 274°
2026-04-25 09:18 29.20711 -91.04717 33883 ft 435 kts 274°
2026-04-25 09:19 29.20920 -91.11595 33884 ft 435 kts 274°
2026-04-25 09:19 29.21125 -91.18512 33894 ft 434 kts 274°
2026-04-25 09:20 29.21327 -91.25403 33884 ft 432 kts 274°
2026-04-25 09:20 29.21524 -91.32261 33885 ft 431 kts 274°
2026-04-25 09:21 29.21718 -91.39105 33890 ft 430 kts 274°
2026-04-25 09:21 29.21906 -91.45891 33889 ft 429 kts 274°
2026-04-25 09:22 29.22092 -91.52717 33888 ft 429 kts 274°
2026-04-25 09:22 29.22274 -91.59528 33889 ft 427 kts 274°
2026-04-25 09:23 29.22452 -91.66317 33882 ft 426 kts 274°
2026-04-25 09:23 29.22625 -91.73041 33890 ft 425 kts 274°
2026-04-25 09:24 29.22795 -91.79791 33890 ft 424 kts 274°
2026-04-25 09:24 29.22962 -91.86544 33890 ft 424 kts 274°
2026-04-25 09:25 29.23126 -91.93298 33890 ft 424 kts 274°
2026-04-25 09:25 29.23285 -92.00002 33889 ft 424 kts 274°
2026-04-25 09:26 29.23443 -92.06750 33889 ft 425 kts 273°
2026-04-25 09:26 29.23595 -92.13512 33887 ft 425 kts 273°
2026-04-25 09:27 29.23745 -92.20277 33886 ft 426 kts 273°
2026-04-25 09:27 29.23891 -92.27009 33886 ft 426 kts 273°
2026-04-25 09:28 29.24035 -92.33784 33880 ft 425 kts 273°
2026-04-25 09:28 29.24176 -92.40543 33885 ft 424 kts 273°
2026-04-25 09:29 29.24311 -92.47288 33880 ft 423 kts 273°
2026-04-25 09:29 29.24366 -92.53975 33885 ft 423 kts 272°
2026-04-25 09:30 29.24381 -92.60710 33881 ft 423 kts 272°
2026-04-25 09:30 29.24399 -92.67439 33875 ft 422 kts 272°
2026-04-25 09:31 29.24420 -92.74163 33885 ft 422 kts 272°
2026-04-25 09:31 29.24441 -92.80884 33882 ft 422 kts 272°
2026-04-25 09:32 29.24459 -92.87561 33882 ft 422 kts 272°
2026-04-25 09:32 29.24473 -92.94285 33879 ft 422 kts 272°
2026-04-25 09:33 29.24484 -93.01002 33883 ft 422 kts 272°
2026-04-25 09:33 29.24492 -93.07728 33875 ft 422 kts 272°
2026-04-25 09:34 29.24496 -93.14397 33883 ft 421 kts 272°
2026-04-25 09:34 29.24497 -93.21102 33875 ft 421 kts 272°
2026-04-25 09:35 29.24495 -93.27798 33877 ft 420 kts 272°
2026-04-25 09:35 29.24489 -93.34489 33877 ft 420 kts 272°
2026-04-25 09:36 29.24480 -93.41177 33872 ft 420 kts 272°
2026-04-25 09:36 29.24468 -93.47812 33871 ft 420 kts 272°
2026-04-25 09:37 29.24452 -93.54501 33869 ft 420 kts 272°
2026-04-25 09:37 29.24434 -93.61191 33869 ft 420 kts 272°
2026-04-25 09:38 29.24411 -93.67884 33869 ft 420 kts 272°
2026-04-25 09:38 29.24386 -93.74534 33868 ft 421 kts 271°
2026-04-25 09:39 29.24357 -93.81229 33865 ft 421 kts 271°
2026-04-25 09:39 29.24325 -93.87927 33868 ft 421 kts 271°
2026-04-25 09:40 29.24270 -93.97973 33866 ft 421 kts 271°
2026-04-25 09:40 29.24229 -94.04672 33865 ft 421 kts 271°
2026-04-25 09:41 29.24186 -94.11318 33866 ft 421 kts 271°
2026-04-25 09:41 29.24139 -94.18016 33861 ft 421 kts 271°
2026-04-25 09:42 29.24088 -94.24712 33859 ft 420 kts 271°
2026-04-25 09:42 29.24035 -94.31358 33858 ft 420 kts 271°
2026-04-25 09:43 29.23978 -94.38049 33857 ft 420 kts 271°
2026-04-25 09:43 29.24423 -94.44680 33853 ft 418 kts 283°
2026-04-25 09:44 29.26206 -94.50995 33856 ft 418 kts 292°
2026-04-25 09:44 29.29086 -94.56802 33855 ft 420 kts 298°
2026-04-25 09:45 29.32095 -94.62491 33856 ft 420 kts 298°
2026-04-25 09:45 29.35098 -94.68235 33855 ft 420 kts 298°
2026-04-25 09:46 29.38076 -94.73988 33860 ft 420 kts 298°
2026-04-25 09:46 29.41049 -94.79755 33859 ft 420 kts 298°
2026-04-25 09:47 29.44019 -94.85526 33859 ft 420 kts 298°
2026-04-25 09:47 29.46968 -94.91262 33864 ft 420 kts 298°
2026-04-25 09:48 29.49936 -94.97044 33853 ft 420 kts 298°
2026-04-25 09:48 29.52900 -95.02826 33858 ft 420 kts 298°
2026-04-25 09:49 29.55856 -95.08600 33843 ft 420 kts 298°
2026-04-25 09:49 29.58791 -95.14343 33842 ft 419 kts 298°
2026-04-25 09:50 29.61740 -95.20122 33843 ft 419 kts 298°
2026-04-25 09:50 29.64572 -95.25981 33842 ft 418 kts 293°
2026-04-25 09:51 29.66650 -95.32212 33843 ft 417 kts 285°
2026-04-25 09:51 29.68106 -95.38628 33843 ft 416 kts 284°
2026-04-25 09:52 29.69536 -95.45061 33842 ft 416 kts 284°
2026-04-25 09:52 29.70974 -95.51499 33837 ft 416 kts 284°
2026-04-25 09:53 29.72415 -95.57934 33844 ft 417 kts 284°
2026-04-25 09:53 29.73869 -95.64434 33841 ft 417 kts 284°
2026-04-25 09:54 29.75301 -95.70845 33839 ft 417 kts 284°
2026-04-25 09:54 29.76742 -95.77316 33850 ft 417 kts 285°
2026-04-25 09:55 29.78176 -95.83765 33851 ft 416 kts 285°
2026-04-25 09:55 29.79606 -95.90214 33851 ft 415 kts 285°
2026-04-25 09:56 29.81031 -95.96658 33851 ft 415 kts 285°
2026-04-25 09:56 29.82442 -96.03057 33837 ft 415 kts 285°
2026-04-25 09:57 29.83860 -96.09500 33791 ft 415 kts 285°
2026-04-25 09:57 29.85273 -96.15937 33757 ft 414 kts 285°
2026-04-25 09:58 29.86681 -96.22367 33720 ft 414 kts 285°
2026-04-25 09:58 29.88074 -96.28743 33716 ft 413 kts 285°
2026-04-25 09:59 29.89473 -96.35166 33709 ft 413 kts 285°
2026-04-25 09:59 29.90870 -96.41591 33694 ft 413 kts 285°
2026-04-25 10:00 29.92262 -96.48018 33676 ft 413 kts 285°
2026-04-25 10:00 29.93641 -96.54394 33690 ft 413 kts 285°
2026-04-25 10:01 29.95026 -96.60815 33712 ft 412 kts 285°
2026-04-25 10:01 29.96407 -96.67234 33705 ft 413 kts 285°
2026-04-25 10:02 29.97787 -96.73661 33746 ft 413 kts 285°
2026-04-25 10:02 29.99154 -96.80050 33775 ft 413 kts 285°
2026-04-25 10:03 30.00525 -96.86469 33803 ft 412 kts 285°
2026-04-25 10:03 30.01893 -96.92892 33821 ft 412 kts 285°
2026-04-25 10:04 30.03256 -96.99310 33834 ft 411 kts 285°
2026-04-25 10:04 30.04615 -97.05725 33833 ft 411 kts 285°
2026-04-25 10:05 30.05960 -97.12087 33824 ft 411 kts 285°
2026-04-25 10:05 30.07312 -97.18497 33806 ft 411 kts 285°
2026-04-25 10:06 30.08660 -97.24911 33781 ft 411 kts 285°
2026-04-25 10:06 30.10005 -97.31327 33774 ft 411 kts 285°
2026-04-25 10:07 30.11339 -97.37707 33752 ft 411 kts 285°
2026-04-25 10:07 30.12678 -97.44124 33746 ft 411 kts 285°
2026-04-25 10:08 30.14016 -97.50552 33794 ft 412 kts 285°
2026-04-25 10:08 30.15351 -97.56985 33804 ft 412 kts 285°
2026-04-25 10:09 30.16675 -97.63377 33795 ft 412 kts 284°
2026-04-25 10:09 30.18003 -97.69811 33819 ft 412 kts 284°
2026-04-25 10:10 30.19329 -97.76251 33808 ft 412 kts 284°
2026-04-25 10:10 30.20650 -97.82685 33799 ft 412 kts 284°
2026-04-25 10:11 30.21961 -97.89083 33788 ft 411 kts 284°
2026-04-25 10:11 30.23276 -97.95522 33778 ft 411 kts 284°
2026-04-25 10:12 30.24588 -98.01959 33796 ft 411 kts 284°
2026-04-25 10:13 30.26548 -98.11612 33790 ft 411 kts 284°
2026-04-25 10:13 30.27849 -98.18041 33785 ft 411 kts 284°
2026-04-25 10:14 30.29140 -98.24437 33775 ft 411 kts 284°
2026-04-25 10:14 30.30437 -98.30878 33784 ft 411 kts 284°
2026-04-25 10:15 30.31730 -98.37320 33777 ft 411 kts 284°
2026-04-25 10:15 30.33020 -98.43759 33786 ft 411 kts 284°
2026-04-25 10:16 30.34297 -98.50157 33749 ft 411 kts 284°
2026-04-25 10:16 30.35580 -98.56601 33744 ft 411 kts 284°
2026-04-25 10:17 30.36861 -98.63052 33746 ft 411 kts 284°
2026-04-25 10:17 30.38140 -98.69506 33740 ft 411 kts 284°
2026-04-25 10:18 30.39406 -98.75919 33736 ft 411 kts 283°
2026-04-25 10:18 30.40677 -98.82371 33740 ft 411 kts 283°
2026-04-25 10:19 30.41947 -98.88834 33740 ft 412 kts 283°
2026-04-25 10:19 30.43214 -98.95305 33733 ft 412 kts 283°
2026-04-25 10:20 30.44471 -99.01739 33730 ft 412 kts 283°
2026-04-25 10:20 30.45734 -99.08222 33726 ft 412 kts 283°
2026-04-25 10:21 30.46993 -99.14706 33721 ft 412 kts 283°
2026-04-25 10:21 30.48250 -99.21190 33730 ft 412 kts 283°
2026-04-25 10:22 30.49493 -99.27626 33733 ft 412 kts 283°
2026-04-25 10:22 30.50744 -99.34122 33729 ft 413 kts 283°
2026-04-25 10:23 30.51993 -99.40623 33745 ft 413 kts 283°
2026-04-25 10:23 30.53239 -99.47128 33750 ft 413 kts 283°
2026-04-25 10:24 30.54473 -99.53592 33786 ft 413 kts 283°
2026-04-25 10:24 30.55714 -99.60107 33810 ft 414 kts 283°
2026-04-25 10:25 30.56952 -99.66624 33827 ft 414 kts 283°
2026-04-25 10:25 30.58188 -99.73151 33836 ft 414 kts 283°
2026-04-25 10:26 30.59413 -99.79639 33843 ft 414 kts 283°
2026-04-25 10:26 30.60397 -99.86230 33813 ft 414 kts 279°
2026-04-25 10:27 30.61205 -99.92850 33799 ft 414 kts 279°
2026-04-25 10:27 30.62008 -99.99465 33781 ft 414 kts 279°
2026-04-25 10:28 30.62809 -100.06029 33760 ft 413 kts 279°
2026-04-25 10:28 30.63616 -100.12627 33740 ft 413 kts 279°
2026-04-25 10:29 30.64420 -100.19230 33739 ft 413 kts 279°
2026-04-25 10:29 30.65222 -100.25833 33730 ft 413 kts 279°
2026-04-25 10:30 30.66020 -100.32435 33780 ft 413 kts 279°
2026-04-25 10:30 30.66809 -100.38996 33809 ft 413 kts 279°
2026-04-25 10:31 30.67600 -100.45598 33838 ft 413 kts 279°
2026-04-25 10:31 30.68389 -100.52213 33858 ft 413 kts 279°
2026-04-25 10:32 30.69175 -100.58830 33874 ft 413 kts 278°
2026-04-25 10:32 30.69952 -100.65399 33874 ft 413 kts 278°
2026-04-25 10:33 30.70729 -100.72008 33863 ft 413 kts 278°
2026-04-25 10:33 30.71502 -100.78605 33846 ft 412 kts 278°
2026-04-25 10:34 30.72272 -100.85205 33817 ft 412 kts 278°
2026-04-25 10:34 30.73033 -100.91761 33797 ft 412 kts 278°
2026-04-25 10:35 30.73796 -100.98362 33828 ft 412 kts 278°
2026-04-25 10:35 30.74554 -101.04955 33849 ft 412 kts 278°
2026-04-25 10:36 30.75311 -101.11556 33869 ft 412 kts 278°
2026-04-25 10:36 30.76063 -101.18159 33908 ft 412 kts 278°
2026-04-25 10:37 30.76808 -101.24720 33878 ft 412 kts 278°
2026-04-25 10:37 30.77181 -101.28019 33736 ft 411 kts 278°
2026-04-25 10:37 30.77553 -101.31314 33728 ft 411 kts 277°
2026-04-25 10:38 30.78293 -101.37885 33725 ft 409 kts 277°
2026-04-25 10:38 30.79025 -101.44430 33724 ft 407 kts 277°
2026-04-25 10:39 30.79751 -101.50946 33717 ft 406 kts 277°
2026-04-25 10:39 30.80468 -101.57413 33726 ft 406 kts 277°
2026-04-25 10:40 30.81187 -101.63925 33713 ft 406 kts 277°
2026-04-25 10:40 30.81903 -101.70442 33725 ft 406 kts 277°
2026-04-25 10:41 30.82616 -101.76961 33716 ft 407 kts 277°
2026-04-25 10:41 30.83322 -101.83452 33716 ft 407 kts 277°
2026-04-25 10:42 30.84031 -101.89992 33712 ft 407 kts 277°
2026-04-25 10:42 30.84736 -101.96533 33712 ft 408 kts 277°
2026-04-25 10:43 30.85438 -102.03083 33710 ft 408 kts 277°
2026-04-25 10:43 30.86138 -102.09635 33707 ft 408 kts 277°
2026-04-25 10:44 30.86829 -102.16141 33710 ft 408 kts 277°
2026-04-25 10:44 30.87523 -102.22702 33718 ft 408 kts 277°
2026-04-25 10:45 30.88214 -102.29271 33711 ft 409 kts 276°
2026-04-25 10:45 30.88901 -102.35837 33717 ft 409 kts 276°
2026-04-25 10:46 30.89582 -102.42365 33720 ft 409 kts 276°
2026-04-25 10:46 30.90262 -102.48930 33713 ft 408 kts 276°
2026-04-25 10:47 30.90939 -102.55494 33772 ft 408 kts 276°
2026-04-25 10:47 30.91612 -102.62060 33777 ft 408 kts 276°
2026-04-25 10:48 30.92276 -102.68563 33799 ft 407 kts 276°
2026-04-25 10:48 30.92941 -102.75103 33821 ft 406 kts 276°
2026-04-25 10:49 30.93600 -102.81628 33855 ft 406 kts 276°
2026-04-25 10:49 30.93818 -102.83793 33702 ft 406 kts 276°
2026-04-25 10:49 30.94253 -102.88114 33704 ft 405 kts 276°
2026-04-25 10:50 30.94912 -102.94626 33702 ft 405 kts 277°
2026-04-25 10:50 30.96115 -103.01048 33704 ft 407 kts 285°
2026-04-25 10:51 30.97872 -103.07322 33706 ft 408 kts 285°
2026-04-25 10:51 30.99616 -103.13617 33710 ft 408 kts 285°
2026-04-25 10:52 31.01340 -103.19880 33705 ft 408 kts 285°
2026-04-25 10:52 31.03070 -103.26184 33709 ft 408 kts 285°
2026-04-25 10:53 31.04796 -103.32493 33710 ft 408 kts 285°
2026-04-25 10:53 31.06519 -103.38803 33726 ft 408 kts 285°
2026-04-25 10:54 31.08237 -103.45106 33737 ft 408 kts 285°
2026-04-25 10:54 31.09942 -103.51376 33766 ft 408 kts 284°
2026-04-25 10:55 31.11649 -103.57663 33767 ft 406 kts 284°
2026-04-25 10:55 31.13348 -103.63938 33759 ft 405 kts 284°
2026-04-25 10:56 31.15039 -103.70197 33763 ft 404 kts 284°
2026-04-25 10:56 31.16712 -103.76406 33754 ft 403 kts 284°
2026-04-25 10:57 31.18392 -103.82650 33757 ft 403 kts 284°
2026-04-25 10:57 31.20072 -103.88908 33751 ft 404 kts 284°
2026-04-25 10:58 31.21757 -103.95203 33759 ft 407 kts 284°
2026-04-25 10:58 31.23451 -104.01542 33763 ft 410 kts 284°
2026-04-25 10:59 31.25139 -104.07871 33775 ft 411 kts 284°
2026-04-25 10:59 31.26840 -104.14261 33776 ft 412 kts 284°
2026-04-25 11:00 31.28537 -104.20650 33799 ft 410 kts 284°
2026-04-25 11:00 31.30212 -104.26967 33773 ft 406 kts 284°
2026-04-25 11:01 31.31872 -104.33251 33780 ft 408 kts 284°
2026-04-25 11:01 31.33546 -104.39600 33789 ft 409 kts 284°
2026-04-25 11:02 31.35222 -104.45971 33774 ft 410 kts 284°
2026-04-25 11:02 31.36898 -104.52350 33765 ft 410 kts 284°
2026-04-25 11:03 31.38560 -104.58692 33762 ft 410 kts 284°
2026-04-25 11:03 31.40229 -104.65076 33766 ft 410 kts 284°
2026-04-25 11:04 31.41891 -104.71450 33768 ft 410 kts 284°
2026-04-25 11:04 31.43551 -104.77826 33760 ft 409 kts 284°
2026-04-25 11:05 31.45194 -104.84153 33756 ft 408 kts 284°
2026-04-25 11:05 31.46839 -104.90508 33786 ft 408 kts 284°
2026-04-25 11:06 31.48483 -104.96864 33777 ft 407 kts 284°
2026-04-25 11:06 31.50118 -105.03202 33767 ft 406 kts 284°
2026-04-25 11:07 31.51745 -105.09524 33759 ft 405 kts 284°
2026-04-25 11:07 31.53352 -105.15788 33761 ft 404 kts 284°
2026-04-25 11:08 31.54969 -105.22099 33768 ft 404 kts 284°
2026-04-25 11:08 31.56583 -105.28414 33764 ft 404 kts 284°
2026-04-25 11:09 31.58193 -105.34727 33764 ft 404 kts 283°
2026-04-25 11:09 31.59790 -105.41007 33762 ft 405 kts 283°
2026-04-25 11:10 31.61397 -105.47337 33757 ft 405 kts 283°
2026-04-25 11:10 31.63002 -105.53673 33764 ft 405 kts 283°
2026-04-25 11:11 31.64604 -105.60013 33774 ft 405 kts 283°
2026-04-25 11:11 31.66195 -105.66325 33750 ft 406 kts 283°
2026-04-25 11:12 31.67795 -105.72686 33756 ft 407 kts 283°
2026-04-25 11:12 31.69396 -105.79067 33762 ft 408 kts 283°
2026-04-25 11:13 31.70997 -105.85460 33760 ft 408 kts 283°
2026-04-25 11:13 31.72596 -105.91862 33749 ft 408 kts 283°
2026-04-25 11:14 31.74181 -105.98221 33759 ft 408 kts 283°
2026-04-25 11:14 31.75773 -106.04624 33810 ft 408 kts 283°
2026-04-25 11:15 31.77360 -106.11024 33839 ft 407 kts 283°
2026-04-25 11:15 31.78940 -106.17411 33885 ft 406 kts 283°
2026-04-25 11:16 31.81226 -106.26943 33945 ft 404 kts 280°
2026-04-25 11:16 31.82026 -106.33457 33946 ft 402 kts 273°
2026-04-25 11:17 31.82498 -106.40016 33954 ft 403 kts 274°
2026-04-25 11:17 31.82983 -106.46570 33941 ft 403 kts 274°
2026-04-25 11:18 31.83468 -106.53096 33919 ft 404 kts 274°
2026-04-25 11:18 31.83953 -106.59680 33965 ft 404 kts 274°
2026-04-25 11:19 31.84436 -106.66259 33970 ft 403 kts 274°
2026-04-25 11:19 31.84915 -106.72831 33960 ft 403 kts 274°
2026-04-25 11:20 31.85387 -106.79363 33972 ft 404 kts 274°
2026-04-25 11:20 31.85859 -106.85942 33940 ft 404 kts 274°
2026-04-25 11:21 31.86094 -106.89239 33762 ft 405 kts 274°
2026-04-25 11:21 31.86329 -106.92540 33765 ft 405 kts 274°
2026-04-25 11:21 31.86796 -106.99149 33763 ft 406 kts 274°
2026-04-25 11:22 31.87182 -107.04645 33768 ft 405 kts 274°
2026-04-25 11:22 31.87719 -107.12339 33763 ft 407 kts 273°
2026-04-25 11:23 31.88178 -107.18977 33775 ft 407 kts 273°
2026-04-25 11:23 31.88635 -107.25628 33779 ft 408 kts 273°
2026-04-25 11:24 31.89085 -107.32241 33774 ft 409 kts 273°
2026-04-25 11:24 31.89535 -107.38910 33781 ft 409 kts 273°
2026-04-25 11:25 31.89982 -107.45576 33781 ft 408 kts 273°
2026-04-25 11:25 31.90426 -107.52238 33790 ft 408 kts 273°
2026-04-25 11:26 31.90862 -107.58855 33789 ft 408 kts 273°
2026-04-25 11:26 31.91299 -107.65517 33799 ft 409 kts 273°
2026-04-25 11:27 31.91731 -107.72177 33804 ft 408 kts 273°
2026-04-25 11:27 31.92096 -107.76614 33805 ft 408 kts 276°
2026-04-25 11:28 31.93584 -107.84185 33801 ft 410 kts 283°
2026-04-25 11:28 31.95407 -107.91679 33802 ft 409 kts 283°
2026-04-25 11:29 31.96959 -107.98129 33795 ft 409 kts 282°
2026-04-25 11:29 31.98241 -108.03484 33801 ft 409 kts 282°
2026-04-25 11:30 31.99783 -108.09943 33800 ft 409 kts 282°
2026-04-25 11:30 32.01569 -108.17447 33799 ft 410 kts 282°
2026-04-25 11:31 32.02843 -108.22815 33794 ft 410 kts 282°
2026-04-25 11:31 32.04375 -108.29284 33799 ft 410 kts 282°
2026-04-25 11:32 32.05905 -108.35761 33794 ft 410 kts 282°
2026-04-25 11:32 32.07680 -108.43289 33823 ft 410 kts 282°
2026-04-25 11:33 32.08956 -108.48716 33845 ft 410 kts 282°
2026-04-25 11:33 32.10462 -108.55139 33867 ft 409 kts 282°
2026-04-25 11:34 32.11975 -108.61605 33893 ft 409 kts 282°
2026-04-25 11:34 32.13483 -108.68068 33913 ft 408 kts 282°
2026-04-25 11:35 32.14977 -108.74488 33926 ft 408 kts 282°
2026-04-25 11:35 32.15728 -108.77722 33800 ft 409 kts 282°
2026-04-25 11:35 32.16479 -108.80956 33804 ft 408 kts 282°
2026-04-25 11:36 32.17975 -108.87415 33790 ft 408 kts 282°
2026-04-25 11:36 32.19467 -108.93872 33794 ft 407 kts 282°
2026-04-25 11:37 32.20952 -109.00318 33797 ft 406 kts 282°
2026-04-25 11:37 32.22423 -109.06721 33797 ft 407 kts 282°
2026-04-25 11:38 32.23902 -109.13172 33797 ft 407 kts 282°
2026-04-25 11:38 32.25377 -109.19619 33776 ft 406 kts 282°
2026-04-25 11:39 32.26889 -109.26044 33802 ft 406 kts 284°
2026-04-25 11:39 32.28975 -109.32272 33788 ft 408 kts 288°
2026-04-25 11:40 32.31141 -109.38410 33786 ft 408 kts 288°
2026-04-25 11:40 32.33309 -109.44600 33793 ft 407 kts 288°
2026-04-25 11:41 32.35470 -109.50793 33788 ft 407 kts 288°
2026-04-25 11:41 32.37625 -109.56982 33797 ft 407 kts 288°
2026-04-25 11:42 32.39763 -109.63138 33800 ft 407 kts 288°
2026-04-25 11:42 32.41914 -109.69339 33805 ft 407 kts 288°
2026-04-25 11:43 32.44063 -109.75544 33795 ft 407 kts 288°
2026-04-25 11:43 32.46208 -109.81751 33802 ft 407 kts 288°
2026-04-25 11:44 32.48334 -109.87915 33802 ft 407 kts 288°
2026-04-25 11:44 32.50474 -109.94134 33837 ft 408 kts 288°
2026-04-25 11:45 32.52613 -110.00358 33836 ft 408 kts 288°
2026-04-25 11:45 32.54748 -110.06585 33836 ft 408 kts 288°
2026-04-25 11:46 32.56866 -110.12771 33875 ft 408 kts 287°
2026-04-25 11:46 32.58992 -110.18993 33858 ft 407 kts 287°
2026-04-25 11:47 32.61114 -110.25217 33870 ft 407 kts 287°
2026-04-25 11:47 32.63235 -110.31444 33863 ft 407 kts 287°
2026-04-25 11:48 32.65352 -110.37682 33854 ft 408 kts 287°
2026-04-25 11:48 32.67451 -110.43870 33884 ft 406 kts 287°
2026-04-25 11:49 32.69564 -110.50110 33888 ft 408 kts 287°
2026-04-25 11:49 32.71673 -110.56358 33873 ft 408 kts 287°
2026-04-25 11:50 32.73780 -110.62613 33892 ft 408 kts 287°
2026-04-25 11:50 32.75868 -110.68824 33877 ft 407 kts 287°
2026-04-25 11:51 32.77963 -110.75059 33869 ft 406 kts 287°
2026-04-25 11:51 32.80051 -110.81290 33873 ft 406 kts 287°
2026-04-25 11:52 32.82135 -110.87522 33872 ft 405 kts 287°
2026-04-25 11:52 32.84212 -110.93744 33852 ft 405 kts 287°
2026-04-25 11:53 32.86276 -110.99941 33862 ft 406 kts 287°
2026-04-25 11:53 32.88355 -111.06195 33861 ft 407 kts 287°
2026-04-25 11:54 32.90433 -111.12457 33863 ft 407 kts 287°
2026-04-25 11:55 32.93547 -111.21863 33846 ft 407 kts 287°
2026-04-25 11:55 32.95601 -111.28083 33855 ft 407 kts 286°
2026-04-25 11:56 32.97664 -111.34344 33841 ft 406 kts 286°
2026-04-25 11:56 32.99724 -111.40607 33842 ft 406 kts 286°
2026-04-25 11:57 33.01779 -111.46867 33843 ft 405 kts 286°
2026-04-25 11:57 33.03816 -111.53085 33836 ft 405 kts 286°
2026-04-25 11:58 33.05863 -111.59345 33845 ft 405 kts 286°
2026-04-25 11:58 33.07905 -111.65603 33860 ft 406 kts 286°
2026-04-25 11:59 33.09947 -111.71875 33854 ft 406 kts 286°
2026-04-25 11:59 33.11975 -111.78113 33861 ft 406 kts 286°
2026-04-25 12:00 33.15029 -111.87539 33863 ft 406 kts 286°
2026-04-25 12:01 33.18079 -111.96971 33857 ft 406 kts 286°
2026-04-25 12:01 33.20108 -112.03265 33844 ft 406 kts 286°
2026-04-25 12:02 33.23131 -112.12665 33822 ft 407 kts 286°
2026-04-25 12:02 33.25154 -112.18974 33822 ft 407 kts 286°
2026-04-25 12:03 33.27173 -112.25280 33805 ft 405 kts 286°
2026-04-25 12:03 33.29170 -112.31503 33806 ft 402 kts 286°
2026-04-25 12:04 33.31159 -112.37757 33817 ft 404 kts 286°
2026-04-25 12:04 33.33157 -112.44066 33818 ft 407 kts 286°
2026-04-25 12:05 33.35172 -112.50410 33830 ft 409 kts 286°
2026-04-25 12:05 33.37189 -112.56768 33857 ft 409 kts 286°
2026-04-25 12:06 33.39192 -112.63098 33869 ft 409 kts 286°
2026-04-25 12:06 33.41200 -112.69462 33861 ft 408 kts 286°
2026-04-25 12:07 33.43199 -112.75808 33862 ft 407 kts 286°
2026-04-25 12:07 33.45189 -112.82139 33846 ft 406 kts 286°
2026-04-25 12:08 33.47331 -112.88397 33843 ft 407 kts 288°
2026-04-25 12:08 33.49596 -112.94571 33823 ft 408 kts 288°
2026-04-25 12:09 33.51862 -113.00795 33812 ft 407 kts 288°
2026-04-25 12:09 33.54104 -113.07030 33801 ft 408 kts 288°
2026-04-25 12:10 33.56319 -113.13231 33789 ft 407 kts 288°
2026-04-25 12:10 33.58540 -113.19462 33789 ft 407 kts 288°
2026-04-25 12:11 33.60757 -113.25694 33799 ft 406 kts 288°
2026-04-25 12:11 33.62969 -113.31923 33790 ft 406 kts 288°
2026-04-25 12:12 33.64804 -113.37101 33787 ft 405 kts 288°
2026-04-25 12:12 33.67365 -113.44341 33885 ft 406 kts 288°
2026-04-25 12:13 33.69567 -113.50578 33894 ft 406 kts 288°
2026-04-25 12:13 33.71766 -113.56821 33892 ft 406 kts 288°
2026-04-25 12:14 33.73965 -113.63072 33871 ft 406 kts 288°
2026-04-25 12:14 33.76157 -113.69320 33777 ft 406 kts 288°
2026-04-25 12:15 33.78338 -113.75542 33764 ft 407 kts 288°
2026-04-25 12:15 33.80528 -113.81819 33785 ft 407 kts 287°
2026-04-25 12:16 33.82670 -113.88124 33786 ft 407 kts 287°
2026-04-25 12:16 33.84803 -113.94442 33786 ft 408 kts 287°
2026-04-25 12:17 33.86923 -114.00715 33778 ft 407 kts 287°
2026-04-25 12:17 33.89052 -114.07015 33757 ft 406 kts 287°
2026-04-25 12:18 33.91000 -114.13350 33774 ft 401 kts 279°
2026-04-25 12:18 33.92102 -114.19914 33786 ft 400 kts 277°
2026-04-25 12:19 33.93664 -114.29770 33784 ft 402 kts 278°
2026-04-25 12:20 33.94762 -114.36385 33764 ft 403 kts 278°
2026-04-25 12:20 33.95875 -114.43010 33767 ft 403 kts 278°
2026-04-25 12:21 33.96988 -114.49634 33779 ft 403 kts 277°
2026-04-25 12:21 33.98087 -114.56201 33775 ft 402 kts 277°
2026-04-25 12:22 33.99188 -114.62806 33772 ft 402 kts 277°
2026-04-25 12:22 34.00283 -114.69402 33776 ft 401 kts 277°
2026-04-25 12:23 34.01374 -114.75996 33774 ft 401 kts 277°
2026-04-25 12:23 34.02454 -114.82543 33780 ft 401 kts 277°
2026-04-25 12:24 34.03536 -114.89130 33774 ft 400 kts 277°
2026-04-25 12:24 34.04613 -114.95706 33779 ft 400 kts 277°
2026-04-25 12:25 34.05689 -115.02296 33792 ft 401 kts 277°
2026-04-25 12:25 34.06763 -115.08892 33800 ft 401 kts 277°
2026-04-25 12:26 34.07829 -115.15447 33790 ft 401 kts 277°
2026-04-25 12:26 34.08897 -115.22042 33795 ft 400 kts 277°
2026-04-25 12:27 34.09962 -115.28635 33791 ft 400 kts 277°
2026-04-25 12:27 34.11021 -115.35227 33771 ft 400 kts 276°
2026-04-25 12:28 34.12068 -115.41762 33793 ft 399 kts 276°
2026-04-25 12:28 34.13119 -115.48345 33788 ft 399 kts 276°
2026-04-25 12:29 34.14167 -115.54931 33809 ft 400 kts 276°
2026-04-25 12:29 34.15215 -115.61535 33787 ft 401 kts 276°
2026-04-25 12:30 34.16219 -115.68111 33807 ft 399 kts 272°
2026-04-25 12:30 34.16258 -115.71424 33796 ft 391 kts 261°
2026-04-25 12:30 34.15875 -115.74667 33812 ft 390 kts 261°
2026-04-25 12:31 34.15200 -115.81176 33832 ft 392 kts 262°
2026-04-25 12:31 34.14570 -115.87723 33841 ft 393 kts 262°
2026-04-25 12:32 34.13935 -115.94286 33858 ft 394 kts 262°
2026-04-25 12:32 34.13296 -116.00816 33875 ft 394 kts 261°
2026-04-25 12:33 34.12651 -116.07390 33878 ft 394 kts 261°
2026-04-25 12:33 34.12004 -116.13957 33883 ft 394 kts 261°
2026-04-25 12:34 34.11355 -116.20518 33584 ft 397 kts 261°
2026-04-25 12:34 34.11025 -116.23843 32948 ft 399 kts 261°
2026-04-25 12:34 34.10697 -116.27146 32258 ft 394 kts 261°
2026-04-25 12:34 34.10481 -116.29314 31864 ft 391 kts 261°
2026-04-25 12:35 34.10039 -116.33584 31193 ft 383 kts 261°
2026-04-25 12:35 34.09700 -116.36752 30765 ft 380 kts 261°
2026-04-25 12:35 34.09356 -116.39930 30283 ft 384 kts 261°
2026-04-25 12:35 34.09008 -116.43145 29816 ft 389 kts 261°
2026-04-25 12:36 34.08658 -116.46388 29254 ft 390 kts 261°
2026-04-25 12:36 34.08310 -116.49623 28742 ft 388 kts 261°
2026-04-25 12:36 34.07964 -116.52844 28266 ft 386 kts 261°
2026-04-25 12:36 34.07619 -116.56038 27773 ft 383 kts 261°
2026-04-25 12:37 34.07278 -116.59199 27312 ft 377 kts 261°
2026-04-25 12:37 34.06976 -116.62273 26849 ft 372 kts 262°
2026-04-25 12:37 34.06695 -116.65347 26410 ft 367 kts 262°
2026-04-25 12:37 34.06419 -116.68393 25963 ft 364 kts 262°
2026-04-25 12:38 34.06144 -116.71409 25515 ft 360 kts 262°
2026-04-25 12:38 34.05869 -116.74399 25081 ft 358 kts 262°
2026-04-25 12:38 34.05593 -116.77370 24681 ft 355 kts 262°
2026-04-25 12:38 34.05318 -116.80325 24252 ft 354 kts 262°
2026-04-25 12:39 34.05042 -116.83270 23806 ft 353 kts 261°
2026-04-25 12:39 34.04763 -116.86212 23322 ft 353 kts 261°
2026-04-25 12:39 34.04487 -116.89110 22887 ft 351 kts 261°
2026-04-25 12:39 34.04146 -116.92013 22419 ft 348 kts 259°
2026-04-25 12:40 34.03756 -116.94884 21958 ft 345 kts 259°
2026-04-25 12:40 34.03371 -116.97730 21542 ft 343 kts 259°
2026-04-25 12:40 34.02998 -117.00555 21135 ft 340 kts 259°
2026-04-25 12:40 34.02633 -117.03360 20727 ft 338 kts 259°
2026-04-25 12:41 34.02293 -117.06150 20306 ft 336 kts 260°
2026-04-25 12:41 34.01967 -117.08935 19894 ft 335 kts 260°
2026-04-25 12:41 34.01645 -117.11685 19498 ft 336 kts 260°
2026-04-25 12:41 34.01318 -117.14472 19092 ft 336 kts 260°
2026-04-25 12:42 34.00989 -117.17250 18684 ft 334 kts 260°
2026-04-25 12:42 34.00767 -117.19113 18460 ft 332 kts 260°
2026-04-25 12:42 34.00334 -117.22740 17871 ft 328 kts 260°
2026-04-25 12:42 34.00010 -117.25448 17425 ft 325 kts 260°
2026-04-25 12:43 33.99690 -117.28127 17033 ft 321 kts 260°
2026-04-25 12:43 33.99371 -117.30782 16623 ft 320 kts 260°
2026-04-25 12:43 33.98744 -117.36092 15839 ft 319 kts 261°
2026-04-25 12:44 33.98435 -117.38729 15451 ft 316 kts 261°
2026-04-25 12:44 33.98132 -117.41305 15073 ft 313 kts 261°
2026-04-25 12:44 33.97521 -117.46483 14310 ft 311 kts 261°
2026-04-25 12:45 33.97313 -117.49052 13917 ft 307 kts 269°
2026-04-25 12:45 33.97651 -117.51575 13547 ft 305 kts 280°
2026-04-25 12:45 33.98584 -117.56475 12783 ft 296 kts 279°
2026-04-25 12:46 33.99021 -117.58890 12413 ft 294 kts 279°
2026-04-25 12:46 33.99446 -117.61269 12054 ft 294 kts 279°
2026-04-25 12:46 33.99872 -117.63677 11699 ft 294 kts 279°
2026-04-25 12:46 34.00297 -117.66081 11326 ft 294 kts 279°
2026-04-25 12:47 34.00657 -117.68475 10970 ft 283 kts 271°
2026-04-25 12:47 34.00492 -117.70790 10644 ft 274 kts 261°
2026-04-25 12:47 34.00235 -117.73050 10285 ft 271 kts 262°
2026-04-25 12:47 34.00011 -117.75282 9947 ft 267 kts 263°
2026-04-25 12:48 33.99793 -117.77495 9569 ft 264 kts 263°
2026-04-25 12:48 33.99576 -117.79678 9218 ft 260 kts 263°
2026-04-25 12:48 33.99371 -117.81792 8892 ft 256 kts 263°
2026-04-25 12:48 33.99162 -117.83904 8557 ft 253 kts 263°
2026-04-25 12:49 33.98958 -117.85999 8236 ft 251 kts 263°
2026-04-25 12:49 33.98756 -117.88085 7922 ft 250 kts 263°
2026-04-25 12:49 33.98555 -117.90163 7613 ft 250 kts 263°
2026-04-25 12:49 33.98351 -117.92239 7301 ft 249 kts 263°
2026-04-25 12:50 33.98146 -117.94313 7001 ft 249 kts 263°
2026-04-25 12:50 33.97942 -117.96382 6687 ft 249 kts 264°
2026-04-25 12:50 33.97763 -117.98435 6373 ft 250 kts 265°
2026-04-25 12:50 33.97595 -118.00513 6033 ft 250 kts 264°
2026-04-25 12:51 33.97400 -118.02596 5721 ft 250 kts 263°
2026-04-25 12:51 33.97192 -118.04677 5385 ft 251 kts 263°
2026-04-25 12:51 33.96979 -118.06762 5076 ft 251 kts 263°
2026-04-25 12:51 33.96763 -118.08860 4745 ft 253 kts 262°
2026-04-25 12:52 33.96545 -118.10971 4398 ft 255 kts 262°
2026-04-25 12:52 33.96327 -118.13091 4056 ft 256 kts 262°
2026-04-25 12:52 33.96111 -118.15194 3729 ft 256 kts 262°
2026-04-25 12:52 33.95894 -118.17303 3388 ft 248 kts 261°
2026-04-25 12:53 33.95690 -118.19300 3068 ft 233 kts 261°
2026-04-25 12:53 33.95498 -118.21172 2785 ft 218 kts 261°
2026-04-25 12:53 33.95318 -118.22918 2516 ft 202 kts 261°
2026-04-25 12:53 33.95150 -118.24552 2357 ft 194 kts 261°
2026-04-25 12:54 33.94984 -118.26154 2101 ft 190 kts 261°
2026-04-25 12:54 33.94826 -118.27691 1861 ft 178 kts 261°
2026-04-25 12:54 33.94684 -118.29084 1620 ft 162 kts 261°
2026-04-25 12:54 33.94552 -118.30365 1418 ft 147 kts 261°
2026-04-25 12:55 33.94429 -118.31553 1242 ft 140 kts 261°
2026-04-25 12:55 33.94351 -118.32312 1136 ft 137 kts 262°
2026-04-25 12:55 33.94192 -118.33859 858 ft 139 kts 262°
2026-04-25 12:55 33.94074 -118.35006 665 ft 137 kts 262°
2026-04-25 12:56 33.93957 -118.36139 478 ft 136 kts 262°
2026-04-25 12:56 33.93848 -118.37272 291 ft 137 kts 262°
2026-04-25 12:56 33.93728 -118.38401 145 ft 138 kts 261°
2026-04-25 12:56 33.93610 -118.39509 102 ft 124 kts 261°
2026-04-25 12:57 33.93504 -118.40532 100 ft 100 kts 264°
2026-04-25 12:57 33.93447 -118.41107 99 ft 55 kts 263°
2026-04-25 12:57 33.93398 -118.41561 98 ft 46 kts 263°
2026-04-25 12:57 33.93378 -118.41767 98 ft 17 kts 263°
2026-04-25 12:58 33.93327 -118.41832 100 ft 12 kts 180°
2026-04-25 12:58 33.93270 -118.41770 98 ft 12 kts 112°
2026-04-25 12:58 33.93266 -118.41675 97 ft 12 kts 84°
2026-04-25 12:58 33.93275 -118.41573 98 ft 13 kts 83°
2026-04-25 12:59 33.93287 -118.41467 100 ft 13 kts 82°
2026-04-25 12:59 33.93298 -118.41360 98 ft 13 kts 82°
2026-04-25 12:59 33.93309 -118.41252 101 ft 13 kts 83°
2026-04-25 12:59 33.93320 -118.41145 102 ft 13 kts 83°
2026-04-25 13:00 33.93331 -118.41038 98 ft 13 kts 83°
2026-04-25 13:00 33.93335 -118.41003 100 ft 13 kts 83°
2026-04-25 13:00 33.93353 -118.40824 99 ft 13 kts 83°
2026-04-25 13:00 33.93365 -118.40700 101 ft 17 kts 83°
2026-04-25 13:01 33.93381 -118.40552 99 ft 18 kts 83°
2026-04-25 13:01 33.93396 -118.40400 99 ft 18 kts 83°
2026-04-25 13:01 33.93411 -118.40248 98 ft 18 kts 83°
2026-04-25 13:01 33.93427 -118.40096 99 ft 18 kts 82°
2026-04-25 13:02 33.93444 -118.39945 98 ft 18 kts 82°
2026-04-25 13:02 33.93459 -118.39792 99 ft 18 kts 84°
2026-04-25 13:02 33.93474 -118.39641 99 ft 18 kts 83°
2026-04-25 13:02 33.93489 -118.39491 98 ft 18 kts 83°
2026-04-25 13:03 33.93504 -118.39339 97 ft 18 kts 83°
2026-04-25 13:03 33.93520 -118.39187 97 ft 18 kts 82°
2026-04-25 13:03 33.93536 -118.39036 101 ft 18 kts 83°
2026-04-25 13:03 33.93551 -118.38884 98 ft 18 kts 83°
2026-04-25 13:04 33.93566 -118.38732 99 ft 18 kts 83°
2026-04-25 13:04 33.93580 -118.38594 99 ft 10 kts 83°
2026-04-25 13:04 33.93573 -118.38521 99 ft 9 kts 133°
2026-04-25 13:04 33.93523 -118.38510 98 ft 6 kts 187°
2026-04-25 13:05 33.93481 -118.38514 99 ft 6 kts 182°
2026-04-25 13:05 33.93444 -118.38522 100 ft 5 kts 217°
2026-04-25 13:05 33.93442 -118.38564 98 ft 4 kts 270°
2026-04-25 13:05 33.93442 -118.38584 98 ft 1 kts 270°